Home > Weather > Punta Cana > Past weeks

Flag for Dominican Republic Past Weather in Punta Cana, Dominican Republic — Yesterday and Last 2 Weeks

Now
84 °F

Passing clouds.


Feels Like: 91 °F
Forecast: 78 / 86 °F
Wind: 8 mph from East

Location: Punta Cana

Current Time: Jun 29, 2016 at 8:46:40 AM

Latest Report: Jun 29, 2016 at 8:00 AM


Visibility: N/A

Pressure: 30.04 "Hg

Humidity: 70%

Dew Point: 73 °F

Location of Punta CanaLocation

Past Weather in Punta Cana — Graph

°F

Punta Cana Temperature Yesterday

Maximum temperature yesterday: 86 °F (at 11:00 AM)
Minimum temperature yesterday: 75 °F (at 3:00 AM)
Average temperature yesterday: 83 °F

High & Low Weather Summary for the Past Weeks

 TemperatureHumidityPressure
High88 °F (Jun 14, 12:00 PM)100% (Jun 17, 5:00 AM)30.15 "Hg (Jun 17, 5:00 AM)
Low73 °F (Jun 17, 5:00 AM)59% (Jun 16, 3:00 PM)29.98 "Hg (Jun 18, 4:00 AM)
Average82 °F80%30.05 "Hg
* Reported Jun 14 7:00 AM — Jun 29 7:00 AM, Punta Cana, Weather by CustomWeather, © 2016

Note: Actual official high and low records may vary slightly from our data, if they occured in-between our weather recording intervals... More about our weather records

Advertising

Punta Cana Weather History for the Previous 24 Hours

Scroll right to see more
 ConditionsComfort  
Time TempWeatherWind HumidityBarometerVisibility
7:00 AM
Wed, Jun 29
82 °FPassing clouds.7 mph74%30.01 "HgN/A
6:00 AM81 °FScattered clouds.9 mph84%30.01 "HgN/A
5:00 AM81 °FPassing clouds.8 mph84%29.98 "HgN/A
4:00 AM79 °FPassing clouds.6 mph89%29.98 "HgN/A
3:00 AM81 °FPassing clouds.3 mph84%30.01 "HgN/A
2:00 AM81 °FPassing clouds.5 mph84%30.01 "HgN/A
1:00 AM81 °FPassing clouds.6 mph89%30.01 "HgN/A
12:00 AM79 °FPassing clouds.7 mph94%30.04 "HgN/A
11:00 PM
Tue, Jun 28
81 °FPartly cloudy.6 mph84%30.04 "HgN/A
10:00 PM81 °FPassing clouds.6 mph84%30.04 "HgN/A
9:00 PM84 °FPassing clouds.5 mph74%30.04 "HgN/A
8:00 PM81 °FPartly cloudy.8 mph84%30.04 "HgN/A
7:00 PM82 °FBroken clouds.12 mph74%30.01 "HgN/A
6:00 PM84 °FScattered clouds.10 mph74%30.01 "HgN/A
5:00 PM84 °FScattered clouds.9 mph70%30.01 "HgN/A
4:00 PM86 °FScattered clouds.12 mph70%30.01 "HgN/A
3:00 PM86 °FScattered clouds.13 mph66%30.01 "HgN/A
2:00 PM86 °FScattered clouds.12 mph70%30.04 "HgN/A
1:00 PM86 °FScattered clouds.12 mph66%30.04 "HgN/A
12:00 PM86 °FScattered clouds.12 mph70%30.04 "HgN/A
11:00 AM86 °FScattered clouds.12 mph70%30.04 "HgN/A
10:00 AM84 °FPassing clouds.12 mph70%30.04 "HgN/A
9:00 AM84 °FPassing clouds.12 mph70%30.04 "HgN/A
8:00 AM82 °FPassing clouds.9 mph74%30.01 "HgN/A
Weather by CustomWeather, © 2016

See weather overviewHow to use our weather pages